Weather History for PAAQ - February, 2013

Change the Weather History Date:

Friday, February 22, 2013

  Actual Average Record
Temperature  
Mean Temperature 20 °F -  
Max Temperature 25 °F 27 °F 48 °F (2015)
Min Temperature 15 °F 9 °F -18 °F (1990)
Degree Days  
Heating Degree Days 45    
Moisture  
Dew Point 15 °F    
Average Humidity 82    
Maximum Humidity 93    
Minimum Humidity 68    
Precipitation  
Precipitation 0.03 in - - ()
Sea Level Pressure  
Sea Level Pressure 29.29 in    
Wind  
Wind Speed 5 mph (NNW)    
Max Wind Speed 10 mph    
Max Gust Speed -    
Visibility 4 miles    
Events Snow    
Averages and records for this station are not official NWS values.
T = Trace of Precipitation, MM = Missing Value Source: NWS Daily Summary

Daily Weather History Graph

Daily Weather History Graph

Search for Another Location

Airport or City:

Trip Planner

Search our weather history database for the weather conditions in past years. The results will help you decide how hot, cold, wet, or windy it might be!

Date:

Astronomy

Feb. 22, 2013 Rise Set
Actual Time 8:18 AM AKST 6:02 PM AKST
Civil Twilight 7:33 AM AKST 6:47 PM AKST
Nautical Twilight 6:42 AM AKST 7:38 PM AKST
Astronomical Twilight 5:51 AM AKST 8:29 PM AKST
Moon 2:50 PM AKST (2/22) 6:46 AM AKST (2/22)
Length of Visible Light 11h 14m
Length of Day
9h 44m
Waxing Gibbous, 91% of the Moon is Illuminated
Feb 22
Waxing Gibbous
Feb 25
Full
Mar 4
Last Quarter
Mar 11
New
Mar 19
First Quarter

Hourly Weather History & Observations

Time (AKST) Temp. Windchill Dew Point Humidity Pressure Visibility Wind Dir Wind Speed Gust Speed Precip Events Conditions
12:07 AM 19.4 °F - 14.0 °F 80% 29.18 in 2.0 mi Calm Calm - 0.00 in Snow Light Snow
12:20 AM 19.4 °F - 15.8 °F 86% 29.18 in 2.0 mi Calm Calm - 0.00 in Snow Light Snow
12:30 AM 19.4 °F - 15.8 °F 86% 29.19 in 1.8 mi Calm Calm - 0.00 in Snow Light Snow
12:43 AM 19.4 °F - 15.8 °F 86% 29.19 in 1.5 mi Calm Calm - 0.00 in Snow Light Snow
12:53 AM 19.0 °F - 15.1 °F 85% 29.21 in 1.5 mi Calm Calm - 0.00 in Snow Light Snow
1:06 AM 19.4 °F 12.8 °F 15.8 °F 86% 29.19 in 2.0 mi North 4.6 mph - 0.01 in Snow Light Snow
1:22 AM 17.6 °F 12.3 °F 15.8 °F 93% 29.20 in 3.0 mi NNW 3.5 mph - 0.01 in Snow Light Snow
1:53 AM 18.0 °F 8.7 °F 14.0 °F 84% 29.22 in 2.5 mi NNW 6.9 mph - 0.01 in Snow Light Snow
2:02 AM 17.6 °F 7.3 °F 14.0 °F 86% 29.20 in 2.0 mi North 8.1 mph - 0.00 in Snow Light Snow
2:32 AM 17.6 °F 8.2 °F 14.0 °F 86% 29.21 in 3.0 mi North 6.9 mph - 0.00 in Snow Light Snow
2:43 AM 17.6 °F 8.2 °F 14.0 °F 86% 29.21 in 2.5 mi North 6.9 mph - 0.00 in Snow Light Snow
2:53 AM 18.0 °F 7.7 °F 14.0 °F 84% 29.23 in 2.5 mi North 8.1 mph - 0.00 in Snow Light Snow
3:03 AM 17.6 °F 7.3 °F 14.0 °F 86% 29.21 in 5.0 mi North 8.1 mph - 0.00 in Snow Light Snow
3:19 AM 17.6 °F 5.7 °F 12.2 °F 79% 29.21 in 3.0 mi NNW 10.4 mph - 0.00 in Snow Light Snow
3:36 AM 17.6 °F 5.7 °F 12.2 °F 79% 29.21 in 6.0 mi NNW 10.4 mph - 0.00 in Snow Light Snow
3:53 AM 17.1 °F 5.8 °F 12.9 °F 84% 29.24 in 7.0 mi NNW 9.2 mph - 0.00 in Snow Light Snow
4:17 AM 17.6 °F 5.7 °F 14.0 °F 86% 29.22 in 1.8 mi NNW 10.4 mph - 0.00 in Snow Light Snow
4:53 AM 17.1 °F 5.8 °F 14.0 °F 88% 29.24 in 1.5 mi North 9.2 mph - 0.01 in Snow Light Snow
5:13 AM 17.6 °F 8.2 °F 14.0 °F 86% 29.23 in 2.5 mi North 6.9 mph - 0.00 in Snow Light Snow
5:28 AM 17.6 °F 8.2 °F 14.0 °F 86% 29.23 in 3.0 mi NNW 6.9 mph - 0.00 in Snow Light Snow
5:53 AM 17.1 °F 7.6 °F 12.9 °F 84% 29.26 in 4.0 mi NNW 6.9 mph - 0.00 in Snow Light Snow
6:10 AM 15.8 °F 5.1 °F 12.2 °F 86% 29.24 in 2.0 mi NNW 8.1 mph - 0.00 in Snow Light Snow
6:20 AM 15.8 °F 5.1 °F 12.2 °F 86% 29.25 in 1.8 mi NNW 8.1 mph - 0.01 in Snow Light Snow
6:33 AM 17.6 °F 7.3 °F 14.0 °F 86% 29.25 in 2.5 mi NNW 8.1 mph - 0.01 in Snow Light Snow
6:43 AM 15.8 °F 5.1 °F 12.2 °F 86% 29.25 in 3.0 mi NNW 8.1 mph - 0.01 in Snow Light Snow
6:53 AM 16.0 °F 4.4 °F 12.9 °F 88% 29.27 in 5.0 mi NNW 9.2 mph - 0.01 in Snow Light Snow
7:23 AM 17.6 °F 5.7 °F 12.2 °F 79% 29.26 in 5.0 mi NNW 10.4 mph - 0.00 in Snow Light Snow
7:40 AM 17.6 °F 6.4 °F 12.2 °F 79% 29.27 in 3.0 mi NNW 9.2 mph - 0.00 in Snow Light Snow
7:53 AM 17.1 °F 5.8 °F 12.9 °F 84% 29.29 in 3.0 mi North 9.2 mph - 0.00 in Snow Light Snow
8:33 AM 17.6 °F 7.3 °F 14.0 °F 86% 29.28 in 4.0 mi North 8.1 mph - 0.00 in Snow Light Snow
8:53 AM 17.1 °F 7.6 °F 14.0 °F 88% 29.30 in 2.5 mi North 6.9 mph - 0.00 in Snow Light Snow
9:06 AM 17.6 °F 8.2 °F 14.0 °F 86% 29.29 in 4.0 mi North 6.9 mph - 0.00 in Snow Light Snow
9:53 AM 18.0 °F 7.7 °F 15.1 °F 88% 29.31 in 4.0 mi North 8.1 mph - 0.00 in Snow Light Snow
10:15 AM 19.4 °F 10.4 °F 15.8 °F 86% 29.30 in 2.5 mi North 6.9 mph - 0.00 in Snow Light Snow
10:22 AM 19.4 °F 11.5 °F 15.8 °F 86% 29.31 in 3.0 mi North 5.8 mph - 0.00 in Snow Light Snow
10:41 AM 19.4 °F 11.5 °F 15.8 °F 86% 29.31 in 3.0 mi North 5.8 mph - 0.00 in Snow Light Snow
10:53 AM 19.0 °F 11.1 °F 15.1 °F 85% 29.33 in 5.0 mi North 5.8 mph - 0.00 in   Overcast
11:53 AM 25.0 °F 15.5 °F 17.1 °F 72% 29.35 in 10.0 mi WNW 9.2 mph - N/A   Overcast
12:48 PM 24.8 °F 16.1 °F 15.8 °F 69% 29.36 in 8.0 mi West 8.1 mph - 0.00 in   Overcast
12:53 PM 25.0 °F 17.1 °F 16.0 °F 69% 29.38 in 7.0 mi West 6.9 mph - 0.00 in Snow Light Snow
1:26 PM 24.8 °F 19.1 °F 17.6 °F 74% 29.37 in 9.0 mi West 4.6 mph - 0.00 in Snow Light Snow
1:53 PM 24.1 °F 15.2 °F 18.0 °F 77% 29.40 in 4.0 mi WSW 8.1 mph - 0.00 in Snow Light Snow
2:10 PM 24.8 °F - 19.4 °F 80% 29.38 in 2.5 mi Calm Calm - 0.00 in Snow Light Snow
2:18 PM 24.8 °F 19.1 °F 17.6 °F 74% 29.38 in 1.8 mi WSW 4.6 mph - 0.00 in Snow Light Snow
2:36 PM 24.8 °F - 17.6 °F 74% 29.39 in 4.0 mi Calm Calm - 0.00 in Snow Light Snow
2:53 PM 23.0 °F - 19.0 °F 85% 29.41 in 4.0 mi Calm Calm - 0.00 in Snow Light Snow
3:53 PM 24.1 °F 19.7 °F 17.1 °F 75% 29.41 in 6.0 mi North 3.5 mph - 0.00 in Snow Light Snow
4:53 PM 24.1 °F 19.7 °F 16.0 °F 71% 29.42 in 10.0 mi North 3.5 mph - 0.00 in   Overcast
5:53 PM 24.1 °F - 16.0 °F 71% 29.42 in 10.0 mi Calm Calm - N/A   Overcast
6:53 PM 23.0 °F - 16.0 °F 74% 29.42 in 10.0 mi Calm Calm - N/A   Overcast
7:53 PM 21.0 °F - 16.0 °F 81% 29.42 in 10.0 mi Calm Calm - N/A   Overcast
8:53 PM 21.0 °F 16.2 °F 17.1 °F 85% 29.44 in 10.0 mi ESE 3.5 mph - N/A   Overcast
9:53 PM 23.0 °F 18.4 °F 14.0 °F 68% 29.42 in 8.0 mi ENE 3.5 mph - 0.00 in Snow Light Snow
10:53 PM 18.0 °F 12.7 °F 14.0 °F 84% 29.40 in 9.0 mi East 3.5 mph - 0.00 in   Overcast
11:53 PM 15.1 °F 7.7 °F 12.0 °F 88% 29.42 in 10.0 mi NNW 4.6 mph - N/A   Mostly Cloudy